Time,TemperatureF,DewpointF,PressureIn,WindDirection,WindDirectionDegrees,WindSpeedMPH,WindSpeedGustMPH,Humidity,HourlyPrecipIn,Conditions,Clouds,dailyrainin,SoftwareType,DateUTC
2013-03-11 00:00:00,48.9,47.0,30.25,ENE,59,7.0,9.0,93,0.00,,,0.00,Wunderground v.1.15,2013-03-11 04:00:00,
2013-03-11 00:01:00,48.9,47.0,30.25,ENE,59,6.0,7.0,93,0.00,,,0.00,Wunderground v.1.15,2013-03-11 04:01:00,
2013-03-11 00:03:00,48.9,47.0,30.25,ENE,59,4.0,8.0,93,0.00,,,0.00,Wunderground v.1.15,2013-03-11 04:03:00,
2013-03-11 00:09:00,48.9,47.0,30.25,ENE,59,5.0,8.0,93,0.00,,,0.00,Wunderground v.1.15,2013-03-11 04:09:00,
2013-03-11 00:15:00,48.9,47.0,30.24,ENE,59,5.0,7.0,93,0.00,,,0.00,Wunderground v.1.15,2013-03-11 04:15:00,
2013-03-11 00:20:00,48.8,46.9,30.23,ENE,60,5.0,5.0,93,0.00,,,0.00,Wunderground v.1.15,2013-03-11 04:20:00,
2013-03-11 00:25:00,48.9,47.0,30.23,ENE,61,4.0,7.0,93,0.00,,,0.00,Wunderground v.1.15,2013-03-11 04:25:00,
2013-03-11 00:32:00,48.9,47.0,30.23,ENE,60,7.0,8.0,93,0.00,,,0.00,Wunderground v.1.15,2013-03-11 04:32:00,
2013-03-11 00:38:00,48.9,47.0,30.23,ENE,59,4.0,8.0,93,0.00,,,0.00,Wunderground v.1.15,2013-03-11 04:38:00,
2013-03-11 00:44:00,48.8,46.9,30.23,ENE,59,7.0,7.0,93,0.00,,,0.00,Wunderground v.1.15,2013-03-11 04:44:00,
2013-03-11 00:49:00,48.8,46.9,30.23,ENE,59,7.0,9.0,93,0.00,,,0.00,Wunderground v.1.15,2013-03-11 04:49:00,
2013-03-11 00:54:00,48.8,46.9,30.23,ENE,57,6.0,7.0,93,0.00,,,0.00,Wunderground v.1.15,2013-03-11 04:54:00,
2013-03-11 00:59:00,48.8,46.9,30.22,ENE,61,7.0,7.0,93,0.00,,,0.00,Wunderground v.1.15,2013-03-11 04:59:00,
2013-03-11 01:05:00,48.9,47.0,30.23,ENE,61,4.0,6.0,93,0.00,,,0.00,Wunderground v.1.15,2013-03-11 05:05:00,
2013-03-11 01:10:00,48.9,47.0,30.22,ENE,67,4.0,6.0,93,0.00,,,0.00,Wunderground v.1.15,2013-03-11 05:10:00,
2013-03-11 01:16:00,48.9,47.0,30.22,ENE,67,3.0,6.0,93,0.00,,,0.00,Wunderground v.1.15,2013-03-11 05:16:00,
2013-03-11 01:21:00,48.9,47.0,30.22,ENE,67,4.0,5.0,93,0.00,,,0.00,Wunderground v.1.15,2013-03-11 05:21:00,
2013-03-11 01:27:00,49.0,47.3,30.22,ENE,69,9.0,9.0,94,0.00,,,0.00,Wunderground v.1.15,2013-03-11 05:27:00,
2013-03-11 01:33:00,49.2,47.5,30.22,ENE,73,6.0,7.0,94,0.00,,,0.00,Wunderground v.1.15,2013-03-11 05:33:00,
2013-03-11 01:38:00,49.3,47.6,30.21,ENE,72,5.0,7.0,94,0.00,,,0.00,Wunderground v.1.15,2013-03-11 05:38:00,
2013-03-11 01:44:00,49.5,47.8,30.22,ENE,73,7.0,7.0,94,0.00,,,0.00,Wunderground v.1.15,2013-03-11 05:44:00,
2013-03-11 01:50:00,49.8,48.1,30.22,ENE,73,5.0,5.0,94,0.00,,,0.00,Wunderground v.1.15,2013-03-11 05:50:00,
2013-03-11 01:55:00,50.0,48.1,30.22,ENE,76,4.0,5.0,93,0.00,,,0.00,Wunderground v.1.15,2013-03-11 05:55:00,
2013-03-11 02:00:00,50.1,48.2,30.22,ENE,76,5.0,5.0,93,0.00,,,0.00,Wunderground v.1.15,2013-03-11 06:00:00,
2013-03-11 02:05:00,50.3,48.4,30.22,ENE,75,3.0,6.0,93,0.00,,,0.00,Wunderground v.1.15,2013-03-11 06:05:00,
2013-03-11 02:10:00,50.3,48.4,30.22,ENE,74,6.0,10.0,93,0.00,,,0.00,Wunderground v.1.15,2013-03-11 06:10:00,
2013-03-11 02:15:00,50.3,48.4,30.21,ENE,74,4.0,10.0,93,0.00,,,0.00,Wunderground v.1.15,2013-03-11 06:15:00,
2013-03-11 02:20:00,50.3,48.4,30.21,ENE,75,6.0,9.0,93,0.00,,,0.00,Wunderground v.1.15,2013-03-11 06:20:00,
2013-03-11 02:26:00,50.3,48.4,30.21,ENE,74,3.0,9.0,93,0.00,,,0.00,Wunderground v.1.15,2013-03-11 06:26:00,
2013-03-11 02:31:00,50.3,48.4,30.21,ENE,74,3.0,7.0,93,0.00,,,0.00,Wunderground v.1.15,2013-03-11 06:31:00,
2013-03-11 02:36:00,50.3,48.4,30.21,ENE,75,6.0,9.0,93,0.00,,,0.00,Wunderground v.1.15,2013-03-11 06:36:00,
2013-03-11 02:41:00,50.3,48.4,30.21,ENE,76,4.0,6.0,93,0.00,,,0.00,Wunderground v.1.15,2013-03-11 06:41:00,
2013-03-11 02:46:00,50.3,48.4,30.21,ENE,76,5.0,10.0,93,0.00,,,0.00,Wunderground v.1.15,2013-03-11 06:46:00,
2013-03-11 02:51:00,50.3,48.4,30.20,ENE,76,4.0,7.0,93,0.00,,,0.00,Wunderground v.1.15,2013-03-11 06:51:00,
2013-03-11 02:56:00,50.3,48.4,30.20,ENE,77,4.0,10.0,93,0.00,,,0.00,Wunderground v.1.15,2013-03-11 06:56:00,
2013-03-11 03:02:00,50.3,48.4,30.20,ENE,77,4.0,5.0,93,0.00,,,0.00,Wunderground v.1.15,2013-03-11 07:02:00,
2013-03-11 03:06:00,50.3,48.4,30.20,ENE,74,3.0,9.0,93,0.00,,,0.00,Wunderground v.1.15,2013-03-11 07:06:00,
2013-03-11 03:12:00,50.3,48.4,30.20,ENE,74,4.0,6.0,93,0.00,,,0.00,Wunderground v.1.15,2013-03-11 07:12:00,
2013-03-11 03:17:00,50.2,48.3,30.20,ENE,74,3.0,10.0,93,0.00,,,0.00,Wunderground v.1.15,2013-03-11 07:17:00,
2013-03-11 03:22:00,50.2,48.3,30.20,ENE,74,6.0,6.0,93,0.00,,,0.00,Wunderground v.1.15,2013-03-11 07:22:00,
2013-03-11 03:27:00,50.2,48.3,30.20,ENE,74,4.0,6.0,93,0.00,,,0.00,Wunderground v.1.15,2013-03-11 07:27:00,
2013-03-11 03:32:00,50.1,48.2,30.20,ENE,73,4.0,5.0,93,0.00,,,0.00,Wunderground v.1.15,2013-03-11 07:32:00,
2013-03-11 03:37:00,50.1,48.2,30.20,ENE,73,3.0,5.0,93,0.00,,,0.00,Wunderground v.1.15,2013-03-11 07:37:00,
2013-03-11 03:42:00,50.1,48.2,30.20,ENE,74,4.0,5.0,93,0.00,,,0.00,Wunderground v.1.15,2013-03-11 07:42:00,
2013-03-11 03:47:00,50.1,48.2,30.20,ENE,73,4.0,5.0,93,0.00,,,0.00,Wunderground v.1.15,2013-03-11 07:47:00,
2013-03-11 03:52:00,50.1,48.2,30.20,ENE,73,2.0,5.0,93,0.00,,,0.00,Wunderground v.1.15,2013-03-11 07:52:00,
2013-03-11 03:57:00,50.2,48.3,30.20,ENE,74,4.0,6.0,93,0.00,,,0.00,Wunderground v.1.15,2013-03-11 07:57:00,
2013-03-11 04:02:00,50.1,48.2,30.19,ENE,74,2.0,5.0,93,0.00,,,0.00,Wunderground v.1.15,2013-03-11 08:02:00,
2013-03-11 04:07:00,50.1,48.2,30.19,ENE,74,4.0,6.0,93,0.00,,,0.00,Wunderground v.1.15,2013-03-11 08:07:00,
2013-03-11 04:12:00,50.1,48.2,30.19,ENE,74,3.0,5.0,93,0.00,,,0.00,Wunderground v.1.15,2013-03-11 08:12:00,
2013-03-11 04:17:00,50.1,48.2,30.18,ENE,74,5.0,6.0,93,0.00,,,0.00,Wunderground v.1.15,2013-03-11 08:17:00,
2013-03-11 04:22:00,50.1,48.2,30.18,ENE,74,2.0,6.0,93,0.00,,,0.00,Wunderground v.1.15,2013-03-11 08:22:00,
2013-03-11 04:27:00,50.1,48.2,30.18,ENE,74,3.0,6.0,93,0.00,,,0.00,Wunderground v.1.15,2013-03-11 08:27:00,
2013-03-11 04:32:00,50.2,48.3,30.17,ENE,74,1.0,4.0,93,0.00,,,0.00,Wunderground v.1.15,2013-03-11 08:32:00,
2013-03-11 04:37:00,50.1,48.2,30.17,ENE,73,5.0,6.0,93,0.00,,,0.00,Wunderground v.1.15,2013-03-11 08:37:00,
2013-03-11 04:42:00,50.2,48.3,30.17,ENE,74,5.0,6.0,93,0.00,,,0.00,Wunderground v.1.15,2013-03-11 08:42:00,
2013-03-11 04:47:00,50.2,48.3,30.16,ENE,74,3.0,8.0,93,0.00,,,0.00,Wunderground v.1.15,2013-03-11 08:47:00,
2013-03-11 04:53:00,50.2,48.3,30.16,ENE,74,6.0,9.0,93,0.00,,,0.00,Wunderground v.1.15,2013-03-11 08:53:00,
2013-03-11 04:58:00,50.3,48.4,30.16,ENE,74,4.0,9.0,93,0.00,,,0.00,Wunderground v.1.15,2013-03-11 08:58:00,
2013-03-11 05:03:00,50.4,48.5,30.16,ENE,74,4.0,7.0,93,0.00,,,0.00,Wunderground v.1.15,2013-03-11 09:03:00,
2013-03-11 05:08:00,50.4,48.5,30.16,ENE,75,3.0,7.0,93,0.00,,,0.00,Wunderground v.1.15,2013-03-11 09:08:00,
2013-03-11 05:13:00,50.4,48.5,30.16,ENE,76,6.0,7.0,93,0.00,,,0.00,Wunderground v.1.15,2013-03-11 09:13:00,
2013-03-11 05:18:00,50.4,48.5,30.16,ENE,76,3.0,7.0,93,0.00,,,0.00,Wunderground v.1.15,2013-03-11 09:18:00,
2013-03-11 05:23:00,50.5,48.6,30.17,ENE,76,2.0,4.0,93,0.00,,,0.00,Wunderground v.1.15,2013-03-11 09:23:00,
2013-03-11 05:28:00,50.5,48.6,30.16,ENE,76,3.0,5.0,93,0.00,,,0.00,Wunderground v.1.15,2013-03-11 09:28:00,
2013-03-11 05:33:00,50.6,48.7,30.16,ENE,76,3.0,5.0,93,0.00,,,0.00,Wunderground v.1.15,2013-03-11 09:33:00,
2013-03-11 05:38:00,50.7,48.7,30.16,ENE,76,3.0,5.0,93,0.00,,,0.00,Wunderground v.1.15,2013-03-11 09:38:00,
2013-03-11 05:43:00,50.8,48.8,30.17,East,81,5.0,7.0,93,0.00,,,0.00,Wunderground v.1.15,2013-03-11 09:43:00,
2013-03-11 05:48:00,50.9,48.9,30.17,East,85,5.0,10.0,93,0.00,,,0.00,Wunderground v.1.15,2013-03-11 09:48:00,
2013-03-11 05:53:00,51.0,49.0,30.17,East,88,6.0,8.0,93,0.00,,,0.00,Wunderground v.1.15,2013-03-11 09:53:00,
2013-03-11 05:58:00,51.0,48.8,30.17,East,89,4.0,8.0,92,0.00,,,0.00,Wunderground v.1.15,2013-03-11 09:58:00,
2013-03-11 06:03:00,51.0,48.8,30.18,East,90,3.0,8.0,92,0.00,,,0.00,Wunderground v.1.15,2013-03-11 10:03:00,
2013-03-11 06:08:00,51.0,48.8,30.18,East,90,4.0,8.0,92,0.00,,,0.00,Wunderground v.1.15,2013-03-11 10:08:00,
2013-03-11 06:13:00,50.9,48.7,30.18,East,92,4.0,7.0,92,0.00,,,0.00,Wunderground v.1.15,2013-03-11 10:13:00,
2013-03-11 06:18:00,50.8,48.6,30.18,East,94,6.0,7.0,92,0.00,,,0.00,Wunderground v.1.15,2013-03-11 10:18:00,
2013-03-11 06:23:00,50.8,48.6,30.18,East,91,5.0,7.0,92,0.00,,,0.00,Wunderground v.1.15,2013-03-11 10:23:00,
2013-03-11 06:28:00,50.8,48.6,30.19,East,92,6.0,7.0,92,0.00,,,0.00,Wunderground v.1.15,2013-03-11 10:28:00,
2013-03-11 06:33:00,50.8,48.6,30.18,East,93,5.0,9.0,92,0.00,,,0.00,Wunderground v.1.15,2013-03-11 10:33:00,
2013-03-11 06:38:00,50.8,48.6,30.18,East,95,5.0,10.0,92,0.00,,,0.00,Wunderground v.1.15,2013-03-11 10:38:00,
2013-03-11 06:43:00,50.7,48.5,30.18,East,96,4.0,10.0,92,0.00,,,0.00,Wunderground v.1.15,2013-03-11 10:43:00,
2013-03-11 06:48:00,50.7,48.5,30.18,East,99,5.0,11.0,92,0.00,,,0.00,Wunderground v.1.15,2013-03-11 10:48:00,
2013-03-11 06:53:00,50.6,48.4,30.17,East,101,4.0,10.0,92,0.00,,,0.00,Wunderground v.1.15,2013-03-11 10:53:00,
2013-03-11 06:58:00,50.6,48.7,30.17,East,96,5.0,10.0,93,0.00,,,0.00,Wunderground v.1.15,2013-03-11 10:58:00,
2013-03-11 07:03:00,50.9,48.9,30.17,East,99,7.0,10.0,93,0.00,,,0.00,Wunderground v.1.15,2013-03-11 11:03:00,
2013-03-11 07:08:00,51.1,49.1,30.17,East,98,6.0,10.0,93,0.00,,,0.00,Wunderground v.1.15,2013-03-11 11:08:00,
2013-03-11 07:13:00,51.3,49.3,30.17,East,100,5.0,9.0,93,0.00,,,0.00,Wunderground v.1.15,2013-03-11 11:13:00,
2013-03-11 07:18:00,51.2,49.0,30.17,East,92,3.0,12.0,92,0.00,,,0.00,Wunderground v.1.15,2013-03-11 11:18:00,
2013-03-11 07:23:00,50.8,48.6,30.17,East,98,3.0,11.0,92,0.00,,,0.00,Wunderground v.1.15,2013-03-11 11:23:00,
2013-03-11 07:28:00,50.5,48.3,30.17,East,98,5.0,11.0,92,0.00,,,0.00,Wunderground v.1.15,2013-03-11 11:28:00,
2013-03-11 07:33:00,50.3,48.1,30.17,East,100,5.0,10.0,92,0.00,,,0.00,Wunderground v.1.15,2013-03-11 11:33:00,
2013-03-11 07:38:00,50.2,48.0,30.17,East,101,6.0,10.0,92,0.00,,,0.00,Wunderground v.1.15,2013-03-11 11:38:00,
2013-03-11 07:43:00,50.4,48.5,30.17,East,101,4.0,10.0,93,0.00,,,0.00,Wunderground v.1.15,2013-03-11 11:43:00,
2013-03-11 07:48:00,50.6,48.7,30.17,East,100,7.0,11.0,93,0.00,,,0.00,Wunderground v.1.15,2013-03-11 11:48:00,
2013-03-11 07:53:00,50.8,48.8,30.17,ESE,103,6.0,10.0,93,0.00,,,0.00,Wunderground v.1.15,2013-03-11 11:53:00,
2013-03-11 07:59:00,50.9,48.9,30.17,ESE,108,4.0,10.0,93,0.00,,,0.00,Wunderground v.1.15,2013-03-11 11:59:00,
2013-03-11 08:04:00,50.9,48.7,30.17,ESE,107,6.0,11.0,92,0.00,,,0.00,Wunderground v.1.15,2013-03-11 12:04:00,
2013-03-11 08:09:00,50.9,48.7,30.17,ESE,105,7.0,11.0,92,0.00,,,0.00,Wunderground v.1.15,2013-03-11 12:09:00,
2013-03-11 08:14:00,51.0,48.8,30.17,ESE,111,8.0,11.0,92,0.00,,,0.00,Wunderground v.1.15,2013-03-11 12:14:00,
2013-03-11 08:19:00,51.2,49.0,30.17,ESE,111,5.0,11.0,92,0.00,,,0.00,Wunderground v.1.15,2013-03-11 12:19:00,
2013-03-11 08:24:00,51.4,49.2,30.18,ESE,114,9.0,10.0,92,0.00,,,0.00,Wunderground v.1.15,2013-03-11 12:24:00,
2013-03-11 08:29:00,51.7,49.5,30.18,ESE,109,6.0,10.0,92,0.00,,,0.00,Wunderground v.1.15,2013-03-11 12:29:00,
2013-03-11 08:34:00,52.1,49.8,30.18,ESE,102,5.0,10.0,92,0.00,,,0.00,Wunderground v.1.15,2013-03-11 12:34:00,
2013-03-11 08:39:00,52.4,49.8,30.18,ESE,109,3.0,11.0,91,0.00,,,0.00,Wunderground v.1.15,2013-03-11 12:39:00,
2013-03-11 08:44:00,52.7,50.1,30.18,ESE,107,4.0,9.0,91,0.00,,,0.00,Wunderground v.1.15,2013-03-11 12:44:00,
2013-03-11 08:49:00,52.9,50.0,30.19,ESE,105,7.0,12.0,90,0.00,,,0.00,Wunderground v.1.15,2013-03-11 12:49:00,
2013-03-11 08:54:00,53.3,50.4,30.19,ESE,109,4.0,8.0,90,0.00,,,0.00,Wunderground v.1.15,2013-03-11 12:54:00,
2013-03-11 08:59:00,53.7,50.8,30.19,ESE,109,2.0,8.0,90,0.00,,,0.00,Wunderground v.1.15,2013-03-11 12:59:00,
2013-03-11 09:04:00,54.1,50.9,30.19,ESE,111,5.0,6.0,89,0.00,,,0.00,Wunderground v.1.15,2013-03-11 13:04:00,
2013-03-11 09:09:00,54.4,51.2,30.20,ESE,109,5.0,9.0,89,0.00,,,0.00,Wunderground v.1.15,2013-03-11 13:09:00,
2013-03-11 09:14:00,54.5,51.0,30.20,ESE,111,8.0,8.0,88,0.00,,,0.00,Wunderground v.1.15,2013-03-11 13:14:00,
2013-03-11 09:19:00,54.6,51.1,30.20,ESE,112,3.0,8.0,88,0.00,,,0.00,Wunderground v.1.15,2013-03-11 13:19:00,
2013-03-11 09:24:00,54.9,51.4,30.19,ESE,111,7.0,10.0,88,0.00,,,0.00,Wunderground v.1.15,2013-03-11 13:24:00,
2013-03-11 09:29:00,55.0,51.2,30.20,ESE,111,3.0,10.0,87,0.00,,,0.00,Wunderground v.1.15,2013-03-11 13:29:00,
2013-03-11 09:34:00,55.3,51.5,30.20,ESE,111,1.0,5.0,87,0.00,,,0.00,Wunderground v.1.15,2013-03-11 13:34:00,
2013-03-11 09:39:00,55.8,51.7,30.20,ESE,113,4.0,7.0,86,0.00,,,0.00,Wunderground v.1.15,2013-03-11 13:39:00,
2013-03-11 09:44:00,56.0,51.6,30.20,ESE,111,5.0,9.0,85,0.00,,,0.00,Wunderground v.1.15,2013-03-11 13:44:00,
2013-03-11 09:49:00,55.9,51.5,30.19,ESE,110,5.0,9.0,85,0.00,,,0.00,Wunderground v.1.15,2013-03-11 13:49:00,
2013-03-11 09:54:00,55.7,51.3,30.18,ESE,110,9.0,10.0,85,0.00,,,0.00,Wunderground v.1.15,2013-03-11 13:54:00,
2013-03-11 10:00:00,55.6,51.2,30.19,ESE,111,5.0,10.0,85,0.00,,,0.00,Wunderground v.1.15,2013-03-11 14:00:00,
2013-03-11 10:05:00,55.7,51.3,30.18,ESE,113,8.0,10.0,85,0.00,,,0.00,Wunderground v.1.15,2013-03-11 14:05:00,
2013-03-11 10:10:00,55.5,50.7,30.18,ESE,116,11.0,11.0,84,0.00,,,0.00,Wunderground v.1.15,2013-03-11 14:10:00,
2013-03-11 10:15:00,55.4,51.0,30.18,ESE,106,7.0,11.0,85,0.00,,,0.00,Wunderground v.1.15,2013-03-11 14:15:00,
2013-03-11 10:20:00,55.7,50.9,30.18,East,99,10.0,11.0,84,0.00,,,0.00,Wunderground v.1.15,2013-03-11 14:20:00,
2013-03-11 10:25:00,55.7,50.9,30.18,ESE,111,9.0,11.0,84,0.00,,,0.00,Wunderground v.1.15,2013-03-11 14:25:00,
2013-03-11 10:30:00,55.3,50.5,30.18,ESE,114,9.0,9.0,84,0.00,,,0.00,Wunderground v.1.15,2013-03-11 14:30:00,
2013-03-11 10:35:00,55.2,50.8,30.18,ESE,114,10.0,12.0,85,0.00,,,0.00,Wunderground v.1.15,2013-03-11 14:35:00,
2013-03-11 10:40:00,55.1,50.7,30.18,ESE,113,10.0,10.0,85,0.00,,,0.00,Wunderground v.1.15,2013-03-11 14:40:00,
2013-03-11 10:45:00,55.2,50.8,30.18,ESE,113,6.0,10.0,85,0.00,,,0.00,Wunderground v.1.15,2013-03-11 14:45:00,
2013-03-11 10:50:00,55.5,51.1,30.18,ESE,109,6.0,9.0,85,0.00,,,0.00,Wunderground v.1.15,2013-03-11 14:50:00,
2013-03-11 10:55:00,56.2,51.7,30.17,ESE,113,5.0,11.0,85,0.00,,,0.00,Wunderground v.1.15,2013-03-11 14:55:00,
2013-03-11 11:00:00,56.5,52.0,30.17,East,98,9.0,11.0,85,0.00,,,0.00,Wunderground v.1.15,2013-03-11 15:00:00,
2013-03-11 11:05:00,57.1,52.3,30.18,ESE,107,7.0,11.0,84,0.00,,,0.00,Wunderground v.1.15,2013-03-11 15:05:00,
2013-03-11 11:10:00,57.6,52.1,30.17,ESE,109,10.0,10.0,82,0.00,,,0.00,Wunderground v.1.15,2013-03-11 15:10:00,
2013-03-11 11:15:00,57.9,52.1,30.17,ESE,111,9.0,13.0,81,0.00,,,0.00,Wunderground v.1.15,2013-03-11 15:15:00,
2013-03-11 11:20:00,58.5,52.7,30.17,ESE,107,2.0,7.0,81,0.00,,,0.00,Wunderground v.1.15,2013-03-11 15:20:00,
2013-03-11 11:25:00,59.4,53.2,30.17,ESE,116,7.0,11.0,80,0.00,,,0.00,Wunderground v.1.15,2013-03-11 15:25:00,
2013-03-11 11:30:00,59.8,52.6,30.17,ESE,119,2.0,7.0,77,0.00,,,0.00,Wunderground v.1.15,2013-03-11 15:30:00,
2013-03-11 11:35:00,60.0,52.8,30.17,ESE,121,4.0,11.0,77,0.00,,,0.00,Wunderground v.1.15,2013-03-11 15:35:00,
2013-03-11 11:40:00,59.9,52.0,30.17,ESE,109,10.0,10.0,75,0.00,,,0.00,Wunderground v.1.15,2013-03-11 15:40:00,
2013-03-11 11:45:00,59.5,51.6,30.16,ESE,108,5.0,10.0,75,0.00,,,0.00,Wunderground v.1.15,2013-03-11 15:45:00,
2013-03-11 11:50:00,59.4,51.8,30.16,ESE,110,6.0,6.0,76,0.00,,,0.00,Wunderground v.1.15,2013-03-11 15:50:00,
2013-03-11 11:55:00,59.5,51.6,30.16,ESE,116,5.0,9.0,75,0.00,,,0.00,Wunderground v.1.15,2013-03-11 15:55:00,
2013-03-11 12:00:00,59.5,51.2,30.16,SE,124,7.0,10.0,74,0.00,,,0.00,Wunderground v.1.15,2013-03-11 16:00:00,
2013-03-11 12:06:00,58.8,50.5,30.16,SE,124,3.0,10.0,74,0.00,,,0.00,Wunderground v.1.15,2013-03-11 16:06:00,
2013-03-11 12:11:00,58.7,51.2,30.17,SE,126,2.0,4.0,76,0.00,,,0.00,Wunderground v.1.15,2013-03-11 16:11:00,
2013-03-11 12:16:00,59.0,51.1,30.17,SE,130,4.0,7.0,75,0.00,,,0.00,Wunderground v.1.15,2013-03-11 16:16:00,
2013-03-11 12:21:00,58.8,50.5,30.16,SE,128,5.0,5.0,74,0.00,,,0.00,Wunderground v.1.15,2013-03-11 16:21:00,
2013-03-11 12:26:00,58.7,50.8,30.16,SE,126,3.0,9.0,75,0.00,,,0.00,Wunderground v.1.15,2013-03-11 16:26:00,
2013-03-11 12:31:00,58.9,51.0,30.15,SE,127,4.0,5.0,75,0.00,,,0.00,Wunderground v.1.15,2013-03-11 16:31:00,
2013-03-11 12:36:00,59.3,51.4,30.14,ESE,123,4.0,7.0,75,0.00,,,0.00,Wunderground v.1.15,2013-03-11 16:36:00,
2013-03-11 12:41:00,60.0,51.3,30.14,SE,140,4.0,9.0,73,0.00,,,0.00,Wunderground v.1.15,2013-03-11 16:41:00,
2013-03-11 12:46:00,60.8,52.1,30.14,SE,142,4.0,9.0,73,0.00,,,0.00,Wunderground v.1.15,2013-03-11 16:46:00,
2013-03-11 12:51:00,61.3,51.8,30.14,SSE,155,3.0,9.0,71,0.00,,,0.00,Wunderground v.1.15,2013-03-11 16:51:00,
2013-03-11 12:56:00,61.5,51.6,30.14,SSE,154,3.0,11.0,70,0.00,,,0.00,Wunderground v.1.15,2013-03-11 16:56:00,
2013-03-11 13:01:00,61.3,51.4,30.14,SSE,153,5.0,11.0,70,0.00,,,0.00,Wunderground v.1.15,2013-03-11 17:01:00,
2013-03-11 13:06:00,60.5,51.0,30.15,SSE,154,2.0,11.0,71,0.00,,,0.00,Wunderground v.1.15,2013-03-11 17:06:00,
2013-03-11 13:12:00,60.1,51.0,30.14,SSE,155,0.0,5.0,72,0.00,,,0.00,Wunderground v.1.15,2013-03-11 17:12:00,
2013-03-11 13:17:00,60.1,51.0,30.14,SSE,156,0.0,7.0,72,0.00,,,0.00,Wunderground v.1.15,2013-03-11 17:17:00,
2013-03-11 13:22:00,60.5,51.4,30.14,SSE,155,6.0,8.0,72,0.00,,,0.00,Wunderground v.1.15,2013-03-11 17:22:00,
2013-03-11 13:27:00,60.9,51.8,30.14,SSE,157,4.0,8.0,72,0.00,,,0.00,Wunderground v.1.15,2013-03-11 17:27:00,
2013-03-11 13:32:00,61.6,52.1,30.14,South,175,5.0,10.0,71,0.00,,,0.00,Wunderground v.1.15,2013-03-11 17:32:00,
2013-03-11 13:37:00,62.2,52.3,30.13,South,178,3.0,10.0,70,0.00,,,0.00,Wunderground v.1.15,2013-03-11 17:37:00,
2013-03-11 13:42:00,61.6,51.7,30.13,South,170,1.0,6.0,70,0.00,,,0.00,Wunderground v.1.15,2013-03-11 17:42:00,
2013-03-11 13:47:00,61.5,52.0,30.13,SSE,159,10.0,10.0,71,0.00,,,0.00,Wunderground v.1.15,2013-03-11 17:47:00,
2013-03-11 13:52:00,61.1,51.6,30.12,SSE,157,4.0,7.0,71,0.00,,,0.00,Wunderground v.1.15,2013-03-11 17:52:00,
2013-03-11 13:57:00,61.1,52.0,30.12,SSE,153,11.0,11.0,72,0.00,,,0.00,Wunderground v.1.15,2013-03-11 17:57:00,
2013-03-11 14:02:00,61.2,52.1,30.12,SSE,154,5.0,9.0,72,0.00,,,0.00,Wunderground v.1.15,2013-03-11 18:02:00,
2013-03-11 14:07:00,61.4,51.5,30.12,SSE,156,11.0,12.0,70,0.00,,,0.00,Wunderground v.1.15,2013-03-11 18:07:00,
2013-03-11 14:12:00,61.1,52.0,30.12,SSE,161,6.0,6.0,72,0.00,,,0.00,Wunderground v.1.15,2013-03-11 18:12:00,
2013-03-11 14:17:00,61.8,52.3,30.11,SSE,159,4.0,10.0,71,0.00,,,0.00,Wunderground v.1.15,2013-03-11 18:17:00,
2013-03-11 14:22:00,62.0,51.7,30.11,SSE,161,3.0,11.0,69,0.00,,,0.00,Wunderground v.1.15,2013-03-11 18:22:00,
2013-03-11 14:27:00,61.8,51.5,30.11,SSE,164,3.0,11.0,69,0.00,,,0.00,Wunderground v.1.15,2013-03-11 18:27:00,
2013-03-11 14:32:00,61.6,51.3,30.11,SSE,154,4.0,10.0,69,0.00,,,0.00,Wunderground v.1.15,2013-03-11 18:32:00,
2013-03-11 14:37:00,61.6,51.7,30.12,South,169,7.0,11.0,70,0.00,,,0.00,Wunderground v.1.15,2013-03-11 18:37:00,
2013-03-11 14:42:00,62.1,51.4,30.11,South,184,2.0,10.0,68,0.00,,,0.00,Wunderground v.1.15,2013-03-11 18:42:00,
2013-03-11 14:47:00,62.8,51.7,30.11,South,183,2.0,10.0,67,0.00,,,0.00,Wunderground v.1.15,2013-03-11 18:47:00,
2013-03-11 14:52:00,63.2,52.1,30.11,South,169,4.0,12.0,67,0.00,,,0.00,Wunderground v.1.15,2013-03-11 18:52:00,
2013-03-11 14:58:00,63.3,51.7,30.11,South,182,2.0,12.0,66,0.00,,,0.00,Wunderground v.1.15,2013-03-11 18:58:00,
2013-03-11 15:03:00,63.3,51.3,30.11,South,178,6.0,11.0,65,0.00,,,0.00,Wunderground v.1.15,2013-03-11 19:03:00,
2013-03-11 15:08:00,63.2,51.2,30.10,South,171,2.0,12.0,65,0.00,,,0.00,Wunderground v.1.15,2013-03-11 19:08:00,
2013-03-11 15:13:00,63.3,51.3,30.10,South,185,9.0,12.0,65,0.00,,,0.00,Wunderground v.1.15,2013-03-11 19:13:00,
2013-03-11 15:18:00,63.2,51.6,30.10,South,183,3.0,12.0,66,0.00,,,0.00,Wunderground v.1.15,2013-03-11 19:18:00,
2013-03-11 15:23:00,63.1,51.1,30.11,South,181,3.0,7.0,65,0.00,,,0.00,Wunderground v.1.15,2013-03-11 19:23:00,
2013-03-11 15:28:00,62.9,51.4,30.11,South,179,5.0,7.0,66,0.00,,,0.00,Wunderground v.1.15,2013-03-11 19:28:00,
2013-03-11 15:33:00,63.2,51.6,30.10,South,177,5.0,6.0,66,0.00,,,0.00,Wunderground v.1.15,2013-03-11 19:33:00,
2013-03-11 15:38:00,63.8,51.8,30.10,South,178,3.0,9.0,65,0.00,,,0.00,Wunderground v.1.15,2013-03-11 19:38:00,
2013-03-11 15:43:00,63.8,51.4,30.11,South,182,0.0,10.0,64,0.00,,,0.00,Wunderground v.1.15,2013-03-11 19:43:00,
2013-03-11 15:48:00,63.8,51.4,30.11,South,181,5.0,12.0,64,0.00,,,0.00,Wunderground v.1.15,2013-03-11 19:48:00,
2013-03-11 15:53:00,63.8,51.8,30.10,South,179,4.0,8.0,65,0.00,,,0.00,Wunderground v.1.15,2013-03-11 19:53:00,
2013-03-11 15:58:00,63.6,51.6,30.10,South,177,9.0,9.0,65,0.00,,,0.00,Wunderground v.1.15,2013-03-11 19:58:00,
2013-03-11 16:03:00,63.4,51.4,30.09,South,180,4.0,12.0,65,0.00,,,0.00,Wunderground v.1.15,2013-03-11 20:03:00,
2013-03-11 16:08:00,63.4,51.8,30.09,South,180,6.0,12.0,66,0.00,,,0.00,Wunderground v.1.15,2013-03-11 20:08:00,
2013-03-11 16:13:00,63.3,51.7,30.09,South,179,3.0,7.0,66,0.00,,,0.00,Wunderground v.1.15,2013-03-11 20:13:00,
2013-03-11 16:18:00,63.1,51.6,30.09,South,173,5.0,10.0,66,0.00,,,0.00,Wunderground v.1.15,2013-03-11 20:18:00,
2013-03-11 16:23:00,62.9,51.8,30.08,SSE,167,9.0,9.0,67,0.00,,,0.00,Wunderground v.1.15,2013-03-11 20:23:00,
2013-03-11 16:28:00,62.5,51.4,30.08,SSE,163,2.0,10.0,67,0.00,,,0.00,Wunderground v.1.15,2013-03-11 20:28:00,
2013-03-11 16:33:00,62.4,51.7,30.08,SSE,159,6.0,11.0,68,0.00,,,0.00,Wunderground v.1.15,2013-03-11 20:33:00,
2013-03-11 16:38:00,62.5,51.8,30.08,SSE,167,2.0,11.0,68,0.00,,,0.00,Wunderground v.1.15,2013-03-11 20:38:00,
2013-03-11 16:43:00,62.9,52.2,30.08,South,171,6.0,7.0,68,0.00,,,0.00,Wunderground v.1.15,2013-03-11 20:43:00,
2013-03-11 16:48:00,63.4,52.2,30.07,South,178,5.0,10.0,67,0.00,,,0.00,Wunderground v.1.15,2013-03-11 20:48:00,
2013-03-11 16:53:00,63.4,51.8,30.07,South,176,1.0,10.0,66,0.00,,,0.00,Wunderground v.1.15,2013-03-11 20:53:00,
2013-03-11 16:58:00,63.2,51.6,30.07,South,171,4.0,10.0,66,0.00,,,0.00,Wunderground v.1.15,2013-03-11 20:58:00,
2013-03-11 17:03:00,62.7,51.6,30.07,South,175,1.0,9.0,67,0.00,,,0.00,Wunderground v.1.15,2013-03-11 21:03:00,
2013-03-11 17:08:00,62.0,51.3,30.07,SSE,164,3.0,11.0,68,0.00,,,0.00,Wunderground v.1.15,2013-03-11 21:08:00,
2013-03-11 17:13:00,61.3,51.0,30.07,SSE,163,2.0,6.0,69,0.00,,,0.00,Wunderground v.1.15,2013-03-11 21:13:00,
2013-03-11 17:18:00,60.2,50.8,30.08,SSE,163,3.0,6.0,71,0.00,,,0.00,Wunderground v.1.15,2013-03-11 21:18:00,
2013-03-11 17:23:00,59.9,50.8,30.08,SSE,161,3.0,7.0,72,0.00,,,0.00,Wunderground v.1.15,2013-03-11 21:23:00,
2013-03-11 17:28:00,59.8,51.1,30.07,SSE,159,6.0,8.0,73,0.00,,,0.00,Wunderground v.1.15,2013-03-11 21:28:00,
2013-03-11 17:33:00,59.5,50.8,30.08,SSE,158,2.0,7.0,73,0.00,,,0.00,Wunderground v.1.15,2013-03-11 21:33:00,
2013-03-11 17:38:00,59.2,50.5,30.07,SSE,158,3.0,9.0,73,0.00,,,0.00,Wunderground v.1.15,2013-03-11 21:38:00,
2013-03-11 17:43:00,59.0,50.7,30.07,SSE,158,1.0,6.0,74,0.00,,,0.00,Wunderground v.1.15,2013-03-11 21:43:00,
2013-03-11 17:49:00,58.8,50.5,30.07,SSE,159,1.0,6.0,74,0.00,,,0.00,Wunderground v.1.15,2013-03-11 21:49:00,
2013-03-11 17:54:00,58.6,50.7,30.07,SSE,159,1.0,4.0,75,0.00,,,0.00,Wunderground v.1.15,2013-03-11 21:54:00,
2013-03-11 17:59:00,58.7,51.2,30.07,SSE,159,0.0,5.0,76,0.00,,,0.00,Wunderground v.1.15,2013-03-11 21:59:00,
2013-03-11 18:04:00,59.0,51.4,30.07,SSE,163,3.0,7.0,76,0.00,,,0.00,Wunderground v.1.15,2013-03-11 22:04:00,
2013-03-11 18:09:00,59.1,51.2,30.07,SSE,163,0.0,7.0,75,0.00,,,0.00,Wunderground v.1.15,2013-03-11 22:09:00,
2013-03-11 18:14:00,59.3,51.4,30.07,SSE,166,5.0,8.0,75,0.00,,,0.00,Wunderground v.1.15,2013-03-11 22:14:00,
2013-03-11 18:19:00,59.4,51.1,30.06,South,169,0.0,8.0,74,0.00,,,0.00,Wunderground v.1.15,2013-03-11 22:19:00,
2013-03-11 18:24:00,59.5,51.2,30.06,South,171,1.0,6.0,74,0.00,,,0.00,Wunderground v.1.15,2013-03-11 22:24:00,
2013-03-11 18:29:00,59.5,51.2,30.05,South,171,0.0,7.0,74,0.00,,,0.00,Wunderground v.1.15,2013-03-11 22:29:00,
2013-03-11 18:34:00,59.4,51.1,30.06,South,170,3.0,7.0,74,0.00,,,0.00,Wunderground v.1.15,2013-03-11 22:34:00,
2013-03-11 18:39:00,59.0,51.4,30.06,South,170,0.0,7.0,76,0.00,,,0.00,Wunderground v.1.15,2013-03-11 22:39:00,
2013-03-11 18:44:00,58.5,50.6,30.06,SSE,168,2.0,7.0,75,0.00,,,0.00,Wunderground v.1.15,2013-03-11 22:44:00,
2013-03-11 18:49:00,58.0,50.5,30.06,SSE,167,4.0,7.0,76,0.00,,,0.00,Wunderground v.1.15,2013-03-11 22:49:00,
2013-03-11 18:54:00,57.3,49.8,30.07,SSE,163,2.0,9.0,76,0.00,,,0.00,Wunderground v.1.15,2013-03-11 22:54:00,
2013-03-11 18:59:00,56.4,49.3,30.07,SSE,164,6.0,9.0,77,0.00,,,0.00,Wunderground v.1.15,2013-03-11 22:59:00,
2013-03-11 19:04:00,55.8,49.0,30.07,SSE,157,5.0,8.0,78,0.00,,,0.00,Wunderground v.1.15,2013-03-11 23:04:00,
2013-03-11 19:09:00,55.9,49.8,30.07,SSE,159,5.0,11.0,80,0.00,,,0.00,Wunderground v.1.15,2013-03-11 23:09:00,
2013-03-11 19:14:00,56.5,50.7,30.07,SSE,157,6.0,10.0,81,0.00,,,0.00,Wunderground v.1.15,2013-03-11 23:14:00,
2013-03-11 19:19:00,57.0,51.6,30.08,SSE,155,6.0,11.0,82,0.00,,,0.00,Wunderground v.1.15,2013-03-11 23:19:00,
2013-03-11 19:24:00,57.4,51.6,30.07,SSE,155,3.0,9.0,81,0.00,,,0.00,Wunderground v.1.15,2013-03-11 23:24:00,
2013-03-11 19:29:00,57.5,51.7,30.07,SSE,157,1.0,10.0,81,0.00,,,0.00,Wunderground v.1.15,2013-03-11 23:29:00,
2013-03-11 19:34:00,57.4,51.6,30.07,SSE,157,2.0,9.0,81,0.00,,,0.00,Wunderground v.1.15,2013-03-11 23:34:00,
2013-03-11 19:39:00,57.4,51.6,30.07,SSE,157,4.0,10.0,81,0.00,,,0.00,Wunderground v.1.15,2013-03-11 23:39:00,
2013-03-11 19:45:00,57.4,51.6,30.07,SSE,155,6.0,10.0,81,0.00,,,0.00,Wunderground v.1.15,2013-03-11 23:45:00,
2013-03-11 19:50:00,57.4,51.6,30.07,SSE,155,6.0,10.0,81,0.00,,,0.00,Wunderground v.1.15,2013-03-11 23:50:00,
2013-03-11 19:55:00,57.4,51.9,30.07,SSE,163,9.0,13.0,82,0.00,,,0.00,Wunderground v.1.15,2013-03-11 23:55:00,
2013-03-11 20:00:00,57.7,52.2,30.07,SSE,155,10.0,10.0,82,0.00,,,0.00,Wunderground v.1.15,2013-03-12 00:00:00,
2013-03-11 20:05:00,57.7,51.9,30.07,SSE,161,5.0,10.0,81,0.00,,,0.00,Wunderground v.1.15,2013-03-12 00:05:00,
2013-03-11 20:10:00,57.5,51.7,30.07,SSE,156,9.0,9.0,81,0.00,,,0.00,Wunderground v.1.15,2013-03-12 00:10:00,
2013-03-11 20:15:00,57.3,51.5,30.07,SSE,161,6.0,12.0,81,0.00,,,0.00,Wunderground v.1.15,2013-03-12 00:15:00,
2013-03-11 20:20:00,57.1,51.7,30.07,SSE,155,5.0,6.0,82,0.00,,,0.00,Wunderground v.1.15,2013-03-12 00:20:00,
2013-03-11 20:25:00,57.1,51.7,30.07,SSE,167,6.0,11.0,82,0.00,,,0.00,Wunderground v.1.15,2013-03-12 00:25:00,
2013-03-11 20:30:00,57.5,52.0,30.07,South,171,1.0,7.0,82,0.00,,,0.00,Wunderground v.1.15,2013-03-12 00:30:00,
2013-03-11 20:35:00,57.7,52.2,30.07,South,172,1.0,9.0,82,0.00,,,0.00,Wunderground v.1.15,2013-03-12 00:35:00,
2013-03-11 20:40:00,57.8,52.3,30.07,South,170,6.0,6.0,82,0.00,,,0.00,Wunderground v.1.15,2013-03-12 00:40:00,
2013-03-11 20:45:00,57.8,52.3,30.07,South,169,4.0,9.0,82,0.00,,,0.00,Wunderground v.1.15,2013-03-12 00:45:00,
2013-03-11 20:50:00,57.6,51.8,30.07,South,169,4.0,6.0,81,0.00,,,0.00,Wunderground v.1.15,2013-03-12 00:50:00,
2013-03-11 20:55:00,57.3,51.9,30.07,SSE,167,3.0,8.0,82,0.00,,,0.00,Wunderground v.1.15,2013-03-12 00:55:00,
2013-03-11 21:01:00,56.9,51.5,30.07,SSE,164,4.0,8.0,82,0.00,,,0.00,Wunderground v.1.15,2013-03-12 01:01:00,
2013-03-11 21:06:00,56.8,51.7,30.07,SSE,166,6.0,12.0,83,0.00,,,0.00,Wunderground v.1.15,2013-03-12 01:06:00,
2013-03-11 21:11:00,56.7,51.9,30.06,SSE,165,6.0,7.0,84,0.00,,,0.00,Wunderground v.1.15,2013-03-12 01:11:00,
2013-03-11 21:16:00,56.7,51.9,30.07,South,169,2.0,10.0,84,0.00,,,0.00,Wunderground v.1.15,2013-03-12 01:16:00,
2013-03-11 21:22:00,56.7,51.9,30.06,SSE,159,7.0,10.0,84,0.00,,,0.00,Wunderground v.1.15,2013-03-12 01:22:00,
2013-03-11 21:27:00,56.6,51.8,30.05,SSE,158,9.0,11.0,84,0.00,,,0.00,Wunderground v.1.15,2013-03-12 01:27:00,
2013-03-11 21:32:00,56.3,51.5,30.05,SSE,154,2.0,7.0,84,0.00,,,0.00,Wunderground v.1.15,2013-03-12 01:32:00,
2013-03-11 21:37:00,56.2,51.7,30.04,SSE,166,3.0,13.0,85,0.00,,,0.00,Wunderground v.1.15,2013-03-12 01:37:00,
2013-03-11 21:42:00,56.1,51.7,30.04,SSE,166,6.0,12.0,85,0.00,,,0.00,Wunderground v.1.15,2013-03-12 01:42:00,
2013-03-11 21:47:00,56.4,52.3,30.04,SSE,158,10.0,13.0,86,0.00,,,0.00,Wunderground v.1.15,2013-03-12 01:47:00,
2013-03-11 21:52:00,56.4,51.9,30.04,SSE,157,6.0,10.0,85,0.00,,,0.00,Wunderground v.1.15,2013-03-12 01:52:00,
2013-03-11 21:57:00,56.2,51.7,30.04,SSE,167,6.0,11.0,85,0.00,,,0.00,Wunderground v.1.15,2013-03-12 01:57:00,
2013-03-11 22:02:00,56.2,51.7,30.04,SSE,161,9.0,11.0,85,0.00,,,0.00,Wunderground v.1.15,2013-03-12 02:02:00,
2013-03-11 22:07:00,56.1,51.7,30.04,SSE,163,3.0,13.0,85,0.00,,,0.00,Wunderground v.1.15,2013-03-12 02:07:00,
2013-03-11 22:12:00,56.2,51.4,30.04,SSE,157,6.0,10.0,84,0.00,,,0.00,Wunderground v.1.15,2013-03-12 02:12:00,
2013-03-11 22:17:00,55.9,51.1,30.04,SSE,165,11.0,11.0,84,0.00,,,0.00,Wunderground v.1.15,2013-03-12 02:17:00,
2013-03-11 22:22:00,55.8,51.0,30.04,South,169,3.0,7.0,84,0.00,,,0.00,Wunderground v.1.15,2013-03-12 02:22:00,
2013-03-11 22:27:00,55.8,51.0,30.03,South,169,4.0,10.0,84,0.00,,,0.00,Wunderground v.1.15,2013-03-12 02:27:00,
2013-03-11 22:32:00,55.9,51.1,30.04,South,174,4.0,11.0,84,0.00,,,0.00,Wunderground v.1.15,2013-03-12 02:32:00,
2013-03-11 22:37:00,56.0,51.2,30.04,South,170,4.0,11.0,84,0.00,,,0.00,Wunderground v.1.15,2013-03-12 02:37:00,
2013-03-11 22:42:00,56.1,51.3,30.03,South,176,3.0,12.0,84,0.00,,,0.00,Wunderground v.1.15,2013-03-12 02:42:00,
2013-03-11 22:47:00,56.5,51.7,30.04,South,185,5.0,13.0,84,0.00,,,0.00,Wunderground v.1.15,2013-03-12 02:47:00,
2013-03-11 22:52:00,56.9,52.1,30.04,South,181,6.0,11.0,84,0.00,,,0.00,Wunderground v.1.15,2013-03-12 02:52:00,
2013-03-11 22:57:00,56.9,51.8,30.04,South,179,3.0,12.0,83,0.00,,,0.00,Wunderground v.1.15,2013-03-12 02:57:00,
2013-03-11 23:02:00,56.9,52.1,30.03,South,173,1.0,7.0,84,0.00,,,0.00,Wunderground v.1.15,2013-03-12 03:02:00,
2013-03-11 23:07:00,56.8,51.7,30.03,South,175,3.0,10.0,83,0.00,,,0.00,Wunderground v.1.15,2013-03-12 03:07:00,
2013-03-11 23:12:00,56.8,52.0,30.02,South,171,3.0,9.0,84,0.00,,,0.00,Wunderground v.1.15,2013-03-12 03:12:00,
2013-03-11 23:17:00,57.1,52.0,30.02,South,171,9.0,13.0,83,0.00,,,0.00,Wunderground v.1.15,2013-03-12 03:17:00,
2013-03-11 23:22:00,57.2,52.1,30.02,South,180,7.0,12.0,83,0.00,,,0.00,Wunderground v.1.15,2013-03-12 03:22:00,
2013-03-11 23:27:00,57.3,52.2,30.01,SSE,167,5.0,12.0,83,0.00,,,0.00,Wunderground v.1.15,2013-03-12 03:27:00,
2013-03-11 23:32:00,57.4,52.3,30.01,South,177,3.0,11.0,83,0.00,,,0.00,Wunderground v.1.15,2013-03-12 03:32:00,
2013-03-11 23:37:00,57.1,52.0,30.01,South,175,4.0,11.0,83,0.00,,,0.00,Wunderground v.1.15,2013-03-12 03:37:00,
2013-03-11 23:42:00,56.8,51.7,30.01,SSE,165,0.0,9.0,83,0.00,,,0.00,Wunderground v.1.15,2013-03-12 03:42:00,
2013-03-11 23:47:00,56.7,51.9,30.00,South,186,3.0,13.0,84,0.00,,,0.00,Wunderground v.1.15,2013-03-12 03:47:00,
2013-03-11 23:52:00,56.6,51.8,30.00,SSE,168,6.0,10.0,84,0.00,,,0.00,Wunderground v.1.15,2013-03-12 03:52:00,
2013-03-11 23:57:00,56.6,51.8,29.99,South,175,6.0,11.0,84,0.00,,,0.00,Wunderground v.1.15,2013-03-12 03:57:00,